Year,Month,Day,Hour,Minute,Value (Times are PST for temperature in C)
2007,07,08,00,00,14.20
2007,07,08,00,01,14.20
2007,07,08,00,02,14.20
2007,07,08,00,03,14.20
2007,07,08,00,04,14.20
2007,07,08,00,05,14.20
2007,07,08,00,06,14.20
2007,07,08,00,07,14.20
2007,07,08,00,08,14.20
2007,07,08,00,09,14.30
2007,07,08,00,10,14.40
2007,07,08,00,11,14.40
2007,07,08,00,12,14.50
2007,07,08,00,13,14.50
2007,07,08,00,14,14.60
2007,07,08,00,15,14.70
2007,07,08,00,16,14.70
2007,07,08,00,17,14.80
2007,07,08,00,18,14.80
2007,07,08,00,19,14.80
2007,07,08,00,20,14.80
2007,07,08,00,21,14.90
2007,07,08,00,22,15.00
2007,07,08,00,23,15.00
2007,07,08,00,24,15.00
2007,07,08,00,25,15.10
2007,07,08,00,26,15.10
2007,07,08,00,27,15.10
2007,07,08,00,28,15.10
2007,07,08,00,29,15.10
2007,07,08,00,30,15.10
2007,07,08,00,31,15.10
2007,07,08,00,32,15.10
2007,07,08,00,33,15.10
2007,07,08,00,34,15.10
2007,07,08,00,35,15.10
2007,07,08,00,36,15.10
2007,07,08,00,37,15.10
2007,07,08,00,38,15.10
2007,07,08,00,39,15.10
2007,07,08,00,40,15.10
2007,07,08,00,41,15.10
2007,07,08,00,42,15.10
2007,07,08,00,43,15.10
2007,07,08,00,44,15.20
2007,07,08,00,45,15.20
2007,07,08,00,46,15.20
2007,07,08,00,47,15.30
2007,07,08,00,48,15.20
2007,07,08,00,49,15.20
2007,07,08,00,50,15.20
2007,07,08,00,51,15.20
2007,07,08,00,52,15.20
2007,07,08,00,53,15.20
2007,07,08,00,54,15.10
2007,07,08,00,55,15.10
2007,07,08,00,56,15.10
2007,07,08,00,57,15.10
2007,07,08,00,58,15.10
2007,07,08,00,59,15.10
2007,07,08,01,00,15.10
2007,07,08,01,01,15.00
2007,07,08,01,02,15.00
2007,07,08,01,03,15.00
2007,07,08,01,04,14.90
2007,07,08,01,05,14.90
2007,07,08,01,06,14.90
2007,07,08,01,07,14.90
2007,07,08,01,08,14.80
2007,07,08,01,09,14.80
2007,07,08,01,10,14.80
2007,07,08,01,11,14.80
2007,07,08,01,12,14.80
2007,07,08,01,13,14.80
2007,07,08,01,14,14.80
2007,07,08,01,15,14.80
2007,07,08,01,16,14.80
2007,07,08,01,17,14.80
2007,07,08,01,18,14.80
2007,07,08,01,19,14.80
2007,07,08,01,20,14.80
2007,07,08,01,21,14.80
2007,07,08,01,22,14.80
2007,07,08,01,23,14.80
2007,07,08,01,24,14.80
2007,07,08,01,25,14.90
2007,07,08,01,26,14.90
2007,07,08,01,27,14.90
2007,07,08,01,28,15.00
2007,07,08,01,29,15.00
2007,07,08,01,30,15.00
2007,07,08,01,31,15.00
2007,07,08,01,32,15.00
2007,07,08,01,33,15.10
2007,07,08,01,34,15.10
2007,07,08,01,35,15.10
2007,07,08,01,36,15.10
2007,07,08,01,37,15.20
2007,07,08,01,38,15.20
2007,07,08,01,39,15.20
2007,07,08,01,40,15.20
2007,07,08,01,41,15.30
2007,07,08,01,42,15.30
2007,07,08,01,43,15.30
2007,07,08,01,44,15.30
2007,07,08,01,45,15.40
2007,07,08,01,46,15.40
2007,07,08,01,47,15.40
2007,07,08,01,48,15.40
2007,07,08,01,49,15.50
2007,07,08,01,50,15.50
2007,07,08,01,51,15.50
2007,07,08,01,52,15.60
2007,07,08,01,53,15.60
2007,07,08,01,54,15.60
2007,07,08,01,55,15.60
2007,07,08,01,56,15.60
2007,07,08,01,57,15.60
2007,07,08,01,58,15.60
2007,07,08,01,59,15.60
2007,07,08,02,00,15.60
2007,07,08,02,01,15.60
2007,07,08,02,02,15.60
2007,07,08,02,03,15.60
2007,07,08,02,04,15.60
2007,07,08,02,05,15.60
2007,07,08,02,06,15.60
2007,07,08,02,07,15.60
2007,07,08,02,08,15.60
2007,07,08,02,09,15.60
2007,07,08,02,10,15.60
2007,07,08,02,11,15.60
2007,07,08,02,12,15.60
2007,07,08,02,13,15.60
2007,07,08,02,14,15.50
2007,07,08,02,15,15.50
2007,07,08,02,16,15.50
2007,07,08,02,17,15.50
2007,07,08,02,18,15.50
2007,07,08,02,19,15.50
2007,07,08,02,20,15.50
2007,07,08,02,21,15.60
2007,07,08,02,22,15.60
2007,07,08,02,23,15.60
2007,07,08,02,24,15.60
2007,07,08,02,25,15.60
2007,07,08,02,26,15.60
2007,07,08,02,27,15.60
2007,07,08,02,28,15.60
2007,07,08,02,29,15.60
2007,07,08,02,30,15.60
2007,07,08,02,31,15.60
2007,07,08,02,32,15.60
2007,07,08,02,33,15.60
2007,07,08,02,34,15.70
2007,07,08,02,35,15.70
2007,07,08,02,36,15.70
2007,07,08,02,37,15.70
2007,07,08,02,38,15.70
2007,07,08,02,39,15.70
2007,07,08,02,40,15.70
2007,07,08,02,41,15.70
2007,07,08,02,42,15.70
2007,07,08,02,43,15.70
2007,07,08,02,44,15.70
2007,07,08,02,45,15.70
2007,07,08,02,46,15.80
2007,07,08,02,47,15.80
2007,07,08,02,48,15.80
2007,07,08,02,49,15.80
2007,07,08,02,50,15.90
2007,07,08,02,51,15.90
2007,07,08,02,52,16.00
2007,07,08,02,53,16.10
2007,07,08,02,54,16.10
2007,07,08,02,55,16.10
2007,07,08,02,56,16.20
2007,07,08,02,57,16.20
2007,07,08,02,58,16.20
2007,07,08,02,59,16.20
2007,07,08,03,00,16.20
2007,07,08,03,01,16.20
2007,07,08,03,02,16.20
2007,07,08,03,03,16.10
2007,07,08,03,04,16.10
2007,07,08,03,05,16.10
2007,07,08,03,06,16.10
2007,07,08,03,07,16.10
2007,07,08,03,08,16.10
2007,07,08,03,09,16.20
2007,07,08,03,10,16.20
2007,07,08,03,11,16.20
2007,07,08,03,12,16.20
2007,07,08,03,13,16.20
2007,07,08,03,14,16.10
2007,07,08,03,15,16.10
2007,07,08,03,16,16.10
2007,07,08,03,17,16.10
2007,07,08,03,18,16.10
2007,07,08,03,19,16.10
2007,07,08,03,20,16.10
2007,07,08,03,21,16.10
2007,07,08,03,22,16.10
2007,07,08,03,23,16.10
2007,07,08,03,24,16.10
2007,07,08,03,25,16.10
2007,07,08,03,26,16.10
2007,07,08,03,27,16.10
2007,07,08,03,28,16.10
2007,07,08,03,29,16.10
2007,07,08,03,30,16.10
2007,07,08,03,31,16.10
2007,07,08,03,32,16.10
2007,07,08,03,33,16.10
2007,07,08,03,34,16.10
2007,07,08,03,35,16.10
2007,07,08,03,36,16.10
2007,07,08,03,37,16.10
2007,07,08,03,38,16.20
2007,07,08,03,39,16.20
2007,07,08,03,40,16.30
2007,07,08,03,41,16.30
2007,07,08,03,42,16.30
2007,07,08,03,43,16.30
2007,07,08,03,44,16.40
2007,07,08,03,45,16.40
2007,07,08,03,46,16.30
2007,07,08,03,47,16.30
2007,07,08,03,48,16.20
2007,07,08,03,49,16.20
2007,07,08,03,50,16.10
2007,07,08,03,51,16.10
2007,07,08,03,52,16.10
2007,07,08,03,53,16.00
2007,07,08,03,54,15.90
2007,07,08,03,55,15.80
2007,07,08,03,56,15.80
2007,07,08,03,57,15.70
2007,07,08,03,58,15.60
2007,07,08,03,59,15.60
2007,07,08,04,00,15.60
2007,07,08,04,01,15.60
2007,07,08,04,02,15.60
2007,07,08,04,03,15.60
2007,07,08,04,04,15.60
2007,07,08,04,05,15.70
2007,07,08,04,06,15.70
2007,07,08,04,07,15.70
2007,07,08,04,08,15.80
2007,07,08,04,09,15.80
2007,07,08,04,10,15.80
2007,07,08,04,11,15.80
2007,07,08,04,12,15.80
2007,07,08,04,13,15.80
2007,07,08,04,14,15.80
2007,07,08,04,15,15.80
2007,07,08,04,16,15.70
2007,07,08,04,17,15.70
2007,07,08,04,18,15.70
2007,07,08,04,19,15.60
2007,07,08,04,20,15.60
2007,07,08,04,21,15.60
2007,07,08,04,22,15.60
2007,07,08,04,23,15.60
2007,07,08,04,24,15.60
2007,07,08,04,25,15.60
2007,07,08,04,26,15.60
2007,07,08,04,27,15.70
2007,07,08,04,28,15.70
2007,07,08,04,29,15.70
2007,07,08,04,30,15.70
2007,07,08,04,31,15.70
2007,07,08,04,32,15.70
2007,07,08,04,33,15.80
2007,07,08,04,34,15.80
2007,07,08,04,35,15.80
2007,07,08,04,36,15.80
2007,07,08,04,37,15.80
2007,07,08,04,38,15.80
2007,07,08,04,39,15.80
2007,07,08,04,40,15.80
2007,07,08,04,41,15.80
2007,07,08,04,42,15.80
2007,07,08,04,43,15.90
2007,07,08,04,44,15.90
2007,07,08,04,45,16.00
2007,07,08,04,46,16.10
2007,07,08,04,47,16.10
2007,07,08,04,48,16.10
2007,07,08,04,49,16.10
2007,07,08,04,50,16.10
2007,07,08,04,51,16.10
2007,07,08,04,52,16.10
2007,07,08,04,53,16.10
2007,07,08,04,54,16.10
2007,07,08,04,55,16.10
2007,07,08,04,56,16.10
2007,07,08,04,57,16.10
2007,07,08,04,58,16.10
2007,07,08,04,59,16.10
2007,07,08,05,00,16.10
2007,07,08,05,01,16.10
2007,07,08,05,02,16.10
2007,07,08,05,03,16.10
2007,07,08,05,04,16.10
2007,07,08,05,05,16.10
2007,07,08,05,06,16.10
2007,07,08,05,07,16.10
2007,07,08,05,08,16.10
2007,07,08,05,09,16.10
2007,07,08,05,10,16.10
2007,07,08,05,11,16.10
2007,07,08,05,12,16.10
2007,07,08,05,13,16.10
2007,07,08,05,14,16.10
2007,07,08,05,15,16.10
2007,07,08,05,16,16.10
2007,07,08,05,17,16.10
2007,07,08,05,18,16.10
2007,07,08,05,19,15.90
2007,07,08,05,20,15.90
2007,07,08,05,21,15.90
2007,07,08,05,22,15.90
2007,07,08,05,23,15.90
2007,07,08,05,24,15.80
2007,07,08,05,25,15.80
2007,07,08,05,26,15.80
2007,07,08,05,27,15.80
2007,07,08,05,28,15.70
2007,07,08,05,29,15.60
2007,07,08,05,30,15.50
2007,07,08,05,31,15.40
2007,07,08,05,32,15.30
2007,07,08,05,33,15.30
2007,07,08,05,34,15.30
2007,07,08,05,35,15.30
2007,07,08,05,36,15.30
2007,07,08,05,37,15.20
2007,07,08,05,38,15.20
2007,07,08,05,39,15.20
2007,07,08,05,40,15.20
2007,07,08,05,41,15.20
2007,07,08,05,42,15.10
2007,07,08,05,43,15.10
2007,07,08,05,44,15.10
2007,07,08,05,45,15.10
2007,07,08,05,46,15.10
2007,07,08,05,47,15.00
2007,07,08,05,48,15.00
2007,07,08,05,49,15.00
2007,07,08,05,50,15.00
2007,07,08,05,51,15.00
2007,07,08,05,52,15.00
2007,07,08,05,53,14.90
2007,07,08,05,54,14.90
2007,07,08,05,55,14.90
2007,07,08,05,56,14.90
2007,07,08,05,57,14.90
2007,07,08,05,58,14.90
2007,07,08,05,59,14.90
2007,07,08,06,00,14.80
2007,07,08,06,01,14.80
2007,07,08,06,02,14.80
2007,07,08,06,03,14.80
2007,07,08,06,04,14.80
2007,07,08,06,05,14.80
2007,07,08,06,06,14.80
2007,07,08,06,07,14.80
2007,07,08,06,08,14.80
2007,07,08,06,09,14.80
2007,07,08,06,10,14.80
2007,07,08,06,11,14.80
2007,07,08,06,12,14.80
2007,07,08,06,13,14.80
2007,07,08,06,14,14.80
2007,07,08,06,15,14.80
2007,07,08,06,16,14.80
2007,07,08,06,17,14.90
2007,07,08,06,18,14.90
2007,07,08,06,19,14.90
2007,07,08,06,20,14.90
2007,07,08,06,21,14.90
2007,07,08,06,22,14.90
2007,07,08,06,23,14.80
2007,07,08,06,24,14.80
2007,07,08,06,25,14.80
2007,07,08,06,26,14.80
2007,07,08,06,27,14.80
2007,07,08,06,28,14.90
2007,07,08,06,29,14.90
2007,07,08,06,30,14.90
2007,07,08,06,31,14.90
2007,07,08,06,32,14.90
2007,07,08,06,33,14.90
2007,07,08,06,34,14.90
2007,07,08,06,35,14.90
2007,07,08,06,36,14.90
2007,07,08,06,37,14.90
2007,07,08,06,38,14.90
2007,07,08,06,39,14.80
2007,07,08,06,40,14.80
2007,07,08,06,41,14.80
2007,07,08,06,42,14.70
2007,07,08,06,43,14.70
2007,07,08,06,44,14.60
2007,07,08,06,45,14.60
2007,07,08,06,46,14.60
2007,07,08,06,47,14.60
2007,07,08,06,48,14.60
2007,07,08,06,49,14.60
2007,07,08,06,50,14.60
2007,07,08,06,51,14.60
2007,07,08,06,52,14.50
2007,07,08,06,53,14.50
2007,07,08,06,54,14.50
2007,07,08,06,55,14.40
2007,07,08,06,56,14.40
2007,07,08,06,57,14.30
2007,07,08,06,58,14.30
2007,07,08,06,59,14.30
2007,07,08,07,00,14.20
2007,07,08,07,01,14.20
2007,07,08,07,02,14.30
2007,07,08,07,03,14.30
2007,07,08,07,04,14.30
2007,07,08,07,05,14.30
2007,07,08,07,06,14.40
2007,07,08,07,07,14.40
2007,07,08,07,08,14.40
2007,07,08,07,09,14.40
2007,07,08,07,10,14.50
2007,07,08,07,11,14.50
2007,07,08,07,12,14.60
2007,07,08,07,13,14.60
2007,07,08,07,14,14.70
2007,07,08,07,15,14.70
2007,07,08,07,16,14.80
2007,07,08,07,17,14.80
2007,07,08,07,18,14.80
2007,07,08,07,19,14.80
2007,07,08,07,20,14.80
2007,07,08,07,21,14.90
2007,07,08,07,22,14.80
2007,07,08,07,23,14.80
2007,07,08,07,24,14.80
2007,07,08,07,25,14.80
2007,07,08,07,26,14.80
2007,07,08,07,27,14.80
2007,07,08,07,28,14.80
2007,07,08,07,29,14.80
2007,07,08,07,30,14.80
2007,07,08,07,31,14.80
2007,07,08,07,32,14.90
2007,07,08,07,33,14.90
2007,07,08,07,34,14.90
2007,07,08,07,35,14.90
2007,07,08,07,36,15.00
2007,07,08,07,37,15.00
2007,07,08,07,38,15.00
2007,07,08,07,39,15.10
2007,07,08,07,40,15.10
2007,07,08,07,41,15.20
2007,07,08,07,42,15.20
2007,07,08,07,43,15.30
2007,07,08,07,44,15.30
2007,07,08,07,45,15.30
2007,07,08,07,46,15.40
2007,07,08,07,47,15.40
2007,07,08,07,48,15.50
2007,07,08,07,49,15.50
2007,07,08,07,50,15.60
2007,07,08,07,51,15.60
2007,07,08,07,52,15.60
2007,07,08,07,53,15.70
2007,07,08,07,54,15.70
2007,07,08,07,55,15.80
2007,07,08,07,56,15.80
2007,07,08,07,57,15.80
2007,07,08,07,58,15.80
2007,07,08,07,59,15.80
2007,07,08,08,00,15.80
2007,07,08,08,01,15.80
2007,07,08,08,02,15.80
2007,07,08,08,03,15.70
2007,07,08,08,04,15.60
2007,07,08,08,05,15.50
2007,07,08,08,06,15.40
2007,07,08,08,07,15.40
2007,07,08,08,08,15.40
2007,07,08,08,09,15.30
2007,07,08,08,10,15.20
2007,07,08,08,11,15.10
2007,07,08,08,12,15.10
2007,07,08,08,13,15.10
2007,07,08,08,14,15.10
2007,07,08,08,15,15.10
2007,07,08,08,16,15.10
2007,07,08,08,17,15.10
2007,07,08,08,18,15.10
2007,07,08,08,19,15.10
2007,07,08,08,20,15.10
2007,07,08,08,21,15.20
2007,07,08,08,22,15.20
2007,07,08,08,23,15.20
2007,07,08,08,24,15.20
2007,07,08,08,25,15.20
2007,07,08,08,26,15.30
2007,07,08,08,27,15.30
2007,07,08,08,28,15.30
2007,07,08,08,29,15.30
2007,07,08,08,30,15.30
2007,07,08,08,31,15.30
2007,07,08,08,32,15.30
2007,07,08,08,33,15.30
2007,07,08,08,34,15.40
2007,07,08,08,35,15.40
2007,07,08,08,36,15.40
2007,07,08,08,37,15.40
2007,07,08,08,38,15.40
2007,07,08,08,39,15.40
2007,07,08,08,40,15.30
2007,07,08,08,41,15.30
2007,07,08,08,42,15.30
2007,07,08,08,43,15.30
2007,07,08,08,44,15.30
2007,07,08,08,45,15.10
2007,07,08,08,46,15.00
2007,07,08,08,47,15.00
2007,07,08,08,48,14.90
2007,07,08,08,49,14.80
2007,07,08,08,50,14.70
2007,07,08,08,51,14.70
2007,07,08,08,52,14.60
2007,07,08,08,53,14.60
2007,07,08,08,54,14.60
2007,07,08,08,55,14.60
2007,07,08,08,56,14.50
2007,07,08,08,57,14.50
2007,07,08,08,58,14.50
2007,07,08,08,59,14.50
2007,07,08,09,00,14.50
2007,07,08,09,01,14.50
2007,07,08,09,02,14.50
2007,07,08,09,03,14.50
2007,07,08,09,04,14.50
2007,07,08,09,05,14.50
2007,07,08,09,06,14.50
2007,07,08,09,07,14.50
2007,07,08,09,08,14.60
2007,07,08,09,09,14.60
2007,07,08,09,10,14.60
2007,07,08,09,11,14.60
2007,07,08,09,12,14.60
2007,07,08,09,13,14.70
2007,07,08,09,14,14.70
2007,07,08,09,15,14.70
2007,07,08,09,16,14.70
2007,07,08,09,17,14.80
2007,07,08,09,18,14.80
2007,07,08,09,19,14.80
2007,07,08,09,20,14.70
2007,07,08,09,21,14.70
2007,07,08,09,22,14.70
2007,07,08,09,23,14.70
2007,07,08,09,24,14.70
2007,07,08,09,25,14.70
2007,07,08,09,26,14.70
2007,07,08,09,27,14.80
2007,07,08,09,28,14.80
2007,07,08,09,29,14.80
2007,07,08,09,30,14.80
2007,07,08,09,31,14.80
2007,07,08,09,32,14.80
2007,07,08,09,33,14.90
2007,07,08,09,34,14.90
2007,07,08,09,35,14.90
2007,07,08,09,36,15.00
2007,07,08,09,37,15.10
2007,07,08,09,38,15.10
2007,07,08,09,39,15.10
2007,07,08,09,40,15.20
2007,07,08,09,41,15.20
2007,07,08,09,42,15.20
2007,07,08,09,43,15.20
2007,07,08,09,44,15.30
2007,07,08,09,45,15.30
2007,07,08,09,46,15.30
2007,07,08,09,47,15.30
2007,07,08,09,48,15.30
2007,07,08,09,49,15.30
2007,07,08,09,50,15.30
2007,07,08,09,51,15.30
2007,07,08,09,52,15.30
2007,07,08,09,53,15.30
2007,07,08,09,54,15.30
2007,07,08,09,55,15.30
2007,07,08,09,56,15.30
2007,07,08,09,57,15.20
2007,07,08,09,58,15.20
2007,07,08,09,59,15.20
2007,07,08,10,00,15.30
2007,07,08,10,01,15.30
2007,07,08,10,02,15.30
2007,07,08,10,03,15.30
2007,07,08,10,04,15.30
2007,07,08,10,05,15.30
2007,07,08,10,06,15.30
2007,07,08,10,07,15.30
2007,07,08,10,08,15.30
2007,07,08,10,09,15.30
2007,07,08,10,10,15.30
2007,07,08,10,11,15.30
2007,07,08,10,12,15.30
2007,07,08,10,13,15.30
2007,07,08,10,14,15.30
2007,07,08,10,15,15.30
2007,07,08,10,16,15.30
2007,07,08,10,17,15.30
2007,07,08,10,18,15.30
2007,07,08,10,19,15.30
2007,07,08,10,20,15.30
2007,07,08,10,21,15.30
2007,07,08,10,22,15.20
2007,07,08,10,23,15.20
2007,07,08,10,24,15.20
2007,07,08,10,25,15.20
2007,07,08,10,26,15.20
2007,07,08,10,27,15.20
2007,07,08,10,28,15.20
2007,07,08,10,29,15.20
2007,07,08,10,30,15.30
2007,07,08,10,31,15.30
2007,07,08,10,32,15.30
2007,07,08,10,33,15.30
2007,07,08,10,34,15.30
2007,07,08,10,35,15.30
2007,07,08,10,36,15.30
2007,07,08,10,37,15.30
2007,07,08,10,38,15.30
2007,07,08,10,39,15.30
2007,07,08,10,40,15.30
2007,07,08,10,41,15.20
2007,07,08,10,42,15.20
2007,07,08,10,43,15.10
2007,07,08,10,44,15.10
2007,07,08,10,45,15.00
2007,07,08,10,46,14.90
2007,07,08,10,47,14.90
2007,07,08,10,48,14.80
2007,07,08,10,49,14.90
2007,07,08,10,50,14.90
2007,07,08,10,51,14.90
2007,07,08,10,52,14.90
2007,07,08,10,53,14.90
2007,07,08,10,54,14.80
2007,07,08,10,55,14.80
2007,07,08,10,56,14.80
2007,07,08,10,57,14.90
2007,07,08,10,58,14.90
2007,07,08,10,59,14.90
2007,07,08,11,00,14.90
2007,07,08,11,01,14.90
2007,07,08,11,02,15.00
2007,07,08,11,03,15.00
2007,07,08,11,04,15.10
2007,07,08,11,05,15.10
2007,07,08,11,06,15.10
2007,07,08,11,07,15.20
2007,07,08,11,08,15.20
2007,07,08,11,09,15.20
2007,07,08,11,10,15.30
2007,07,08,11,11,15.30
2007,07,08,11,12,15.30
2007,07,08,11,13,15.30
2007,07,08,11,14,15.20
2007,07,08,11,15,15.20
2007,07,08,11,16,15.20
2007,07,08,11,17,15.20
2007,07,08,11,18,15.30
2007,07,08,11,19,15.30
2007,07,08,11,20,15.30
2007,07,08,11,21,15.20
2007,07,08,11,22,15.10
2007,07,08,11,23,15.10
2007,07,08,11,24,15.10
2007,07,08,11,25,15.10
2007,07,08,11,26,15.10
2007,07,08,11,27,15.00
2007,07,08,11,28,15.00
2007,07,08,11,29,15.00
2007,07,08,11,30,14.90
2007,07,08,11,31,15.00
2007,07,08,11,32,15.00
2007,07,08,11,33,15.10
2007,07,08,11,34,15.10
2007,07,08,11,35,15.10
2007,07,08,11,36,15.00
2007,07,08,11,37,15.10
2007,07,08,11,38,15.10
2007,07,08,11,39,15.20
2007,07,08,11,40,15.20
2007,07,08,11,41,15.30
2007,07,08,11,42,15.30
2007,07,08,11,43,15.30
2007,07,08,11,44,15.30
2007,07,08,11,45,15.20
2007,07,08,11,46,15.20
2007,07,08,11,47,15.20
2007,07,08,11,48,15.20
2007,07,08,11,49,15.20
2007,07,08,11,50,15.20
2007,07,08,11,51,15.20
2007,07,08,11,52,15.20
2007,07,08,11,53,15.30
2007,07,08,11,54,15.30
2007,07,08,11,55,15.30
2007,07,08,11,56,15.50
2007,07,08,11,57,15.50
2007,07,08,11,58,15.60
2007,07,08,11,59,15.70
2007,07,08,12,00,15.70
2007,07,08,12,01,15.70
2007,07,08,12,02,15.70
2007,07,08,12,03,15.70
2007,07,08,12,04,15.60
2007,07,08,12,05,15.60
2007,07,08,12,06,15.70
2007,07,08,12,07,15.80
2007,07,08,12,08,15.80
2007,07,08,12,09,15.80
2007,07,08,12,10,15.80
2007,07,08,12,11,15.80
2007,07,08,12,12,15.90
2007,07,08,12,13,15.90
2007,07,08,12,14,16.10
2007,07,08,12,15,16.10
2007,07,08,12,16,16.20
2007,07,08,12,17,16.20
2007,07,08,12,18,16.10
2007,07,08,12,19,16.10
2007,07,08,12,20,16.10
2007,07,08,12,21,16.20
2007,07,08,12,22,16.20
2007,07,08,12,23,16.20
2007,07,08,12,24,16.20
2007,07,08,12,25,16.20
2007,07,08,12,26,16.40
2007,07,08,12,27,16.30
2007,07,08,12,28,16.30
2007,07,08,12,29,16.30
2007,07,08,12,30,16.30
2007,07,08,12,31,16.30
2007,07,08,12,32,16.40
2007,07,08,12,33,16.30
2007,07,08,12,34,16.30
2007,07,08,12,35,16.30
2007,07,08,12,36,16.30
2007,07,08,12,37,16.30
2007,07,08,12,38,16.30
2007,07,08,12,39,16.40
2007,07,08,12,40,16.40
2007,07,08,12,41,16.50
2007,07,08,12,42,16.60
2007,07,08,12,43,16.60
2007,07,08,12,44,16.60
2007,07,08,12,45,16.60
2007,07,08,12,46,16.70
2007,07,08,12,47,16.70
2007,07,08,12,48,16.70
2007,07,08,12,49,16.70
2007,07,08,12,50,16.70
2007,07,08,12,51,16.70
2007,07,08,12,52,16.70
2007,07,08,12,53,16.70
2007,07,08,12,54,16.80
2007,07,08,12,55,16.80
2007,07,08,12,56,16.90
2007,07,08,12,57,16.90
2007,07,08,12,58,17.00
2007,07,08,12,59,17.00
2007,07,08,13,00,17.00
2007,07,08,13,01,17.20
2007,07,08,13,02,17.20
2007,07,08,13,03,17.20
2007,07,08,13,04,17.20
2007,07,08,13,05,17.20
2007,07,08,13,06,17.20
2007,07,08,13,07,17.30
2007,07,08,13,08,17.30
2007,07,08,13,09,17.30
2007,07,08,13,10,17.30
2007,07,08,13,11,17.20
2007,07,08,13,12,17.30
2007,07,08,13,13,17.30
2007,07,08,13,14,17.40
2007,07,08,13,15,17.40
2007,07,08,13,16,17.50
2007,07,08,13,17,17.40
2007,07,08,13,18,17.30
2007,07,08,13,19,17.30
2007,07,08,13,20,17.30
2007,07,08,13,21,17.30
2007,07,08,13,22,17.30
2007,07,08,13,23,17.30
2007,07,08,13,24,17.40
2007,07,08,13,25,17.50
2007,07,08,13,26,17.50
2007,07,08,13,27,17.60
2007,07,08,13,28,17.60
2007,07,08,13,29,17.60
2007,07,08,13,30,17.60
2007,07,08,13,31,17.50
2007,07,08,13,32,17.50
2007,07,08,13,33,17.50
2007,07,08,13,34,17.50
2007,07,08,13,35,17.50
2007,07,08,13,36,17.60
2007,07,08,13,37,17.60
2007,07,08,13,38,17.60
2007,07,08,13,39,17.50
2007,07,08,13,40,17.50
2007,07,08,13,41,17.50
2007,07,08,13,42,17.50
2007,07,08,13,43,17.50
2007,07,08,13,44,17.70
2007,07,08,13,45,17.80
2007,07,08,13,46,17.90
2007,07,08,13,47,17.80
2007,07,08,13,48,17.80
2007,07,08,13,49,17.80
2007,07,08,13,50,17.80
2007,07,08,13,51,17.90
2007,07,08,13,52,17.90
2007,07,08,13,53,18.00
2007,07,08,13,54,18.10
2007,07,08,13,55,18.10
2007,07,08,13,56,18.20
2007,07,08,13,57,18.20
2007,07,08,13,58,18.20
2007,07,08,13,59,18.20
2007,07,08,14,00,18.20
2007,07,08,14,01,18.20
2007,07,08,14,02,18.10
2007,07,08,14,03,18.10
2007,07,08,14,04,18.10
2007,07,08,14,05,18.20
2007,07,08,14,06,18.20
2007,07,08,14,07,18.20
2007,07,08,14,08,18.20
2007,07,08,14,09,18.20
2007,07,08,14,10,18.60
2007,07,08,14,11,18.70
2007,07,08,14,12,18.90
2007,07,08,14,13,19.10
2007,07,08,14,14,19.10
2007,07,08,14,15,19.10
2007,07,08,14,16,19.10
2007,07,08,14,17,19.10
2007,07,08,14,18,19.10
2007,07,08,14,19,19.10
2007,07,08,14,20,19.10
2007,07,08,14,21,18.90
2007,07,08,14,22,18.90
2007,07,08,14,23,18.90
2007,07,08,14,24,18.90
2007,07,08,14,25,19.00
2007,07,08,14,26,19.10
2007,07,08,14,27,19.10
2007,07,08,14,28,19.20
2007,07,08,14,29,19.10
2007,07,08,14,30,19.20
2007,07,08,14,31,19.20
2007,07,08,14,32,19.40
2007,07,08,14,33,19.40
2007,07,08,14,34,19.50
2007,07,08,14,35,19.70
2007,07,08,14,36,19.70
2007,07,08,14,37,19.80
2007,07,08,14,38,19.90
2007,07,08,14,39,20.00
2007,07,08,14,40,20.10
2007,07,08,14,41,20.10
2007,07,08,14,42,20.20
2007,07,08,14,43,20.20
2007,07,08,14,44,20.20
2007,07,08,14,45,20.20
2007,07,08,14,46,20.20
2007,07,08,14,47,20.00
2007,07,08,14,48,19.90
2007,07,08,14,49,19.90
2007,07,08,14,50,20.00
2007,07,08,14,51,20.00
2007,07,08,14,52,19.90
2007,07,08,14,53,19.80
2007,07,08,14,54,19.60
2007,07,08,14,55,19.60
2007,07,08,14,56,19.60
2007,07,08,14,57,19.60
2007,07,08,14,58,19.60
2007,07,08,14,59,19.70
2007,07,08,15,00,19.80
2007,07,08,15,01,19.80
2007,07,08,15,02,20.00
2007,07,08,15,03,20.20
2007,07,08,15,04,20.20
2007,07,08,15,05,20.30
2007,07,08,15,06,20.30
2007,07,08,15,07,20.50
2007,07,08,15,08,20.60
2007,07,08,15,09,20.70
2007,07,08,15,10,20.70
2007,07,08,15,11,20.70
2007,07,08,15,12,20.80
2007,07,08,15,13,20.90
2007,07,08,15,14,20.90
2007,07,08,15,15,20.90
2007,07,08,15,16,20.80
2007,07,08,15,17,20.80
2007,07,08,15,18,20.90
2007,07,08,15,19,21.00
2007,07,08,15,20,21.00
2007,07,08,15,21,20.90
2007,07,08,15,22,20.70
2007,07,08,15,23,20.60
2007,07,08,15,24,20.60
2007,07,08,15,25,20.50
2007,07,08,15,26,20.50
2007,07,08,15,27,20.50
2007,07,08,15,28,20.60
2007,07,08,15,29,20.70
2007,07,08,15,30,20.90
2007,07,08,15,31,21.10
2007,07,08,15,32,21.20
2007,07,08,15,33,21.30
2007,07,08,15,34,21.50
2007,07,08,15,35,21.60
2007,07,08,15,36,21.70
2007,07,08,15,37,21.70
2007,07,08,15,38,21.60
2007,07,08,15,39,21.80
2007,07,08,15,40,21.90
2007,07,08,15,41,22.00
2007,07,08,15,42,22.00
2007,07,08,15,43,22.10
2007,07,08,15,44,22.10
2007,07,08,15,45,22.10
2007,07,08,15,46,22.20
2007,07,08,15,47,22.30
2007,07,08,15,48,22.40
2007,07,08,15,49,22.60
2007,07,08,15,50,22.60
2007,07,08,15,51,22.50
2007,07,08,15,52,22.60
2007,07,08,15,53,22.70
2007,07,08,15,54,22.80
2007,07,08,15,55,22.70
2007,07,08,15,56,22.60
2007,07,08,15,57,22.60
2007,07,08,15,58,22.60
2007,07,08,15,59,22.60
2007,07,08,16,00,22.60
2007,07,08,16,01,22.60
2007,07,08,16,02,22.60
2007,07,08,16,03,22.70
2007,07,08,16,04,22.70
2007,07,08,16,05,22.70
2007,07,08,16,06,22.80
2007,07,08,16,07,22.90
2007,07,08,16,08,23.00
2007,07,08,16,09,23.20
2007,07,08,16,10,23.30
2007,07,08,16,11,23.30
2007,07,08,16,12,23.30
2007,07,08,16,13,23.30
2007,07,08,16,14,23.30
2007,07,08,16,15,23.30
2007,07,08,16,16,23.30
2007,07,08,16,17,23.30
2007,07,08,16,18,23.30
2007,07,08,16,19,23.20
2007,07,08,16,20,23.10
2007,07,08,16,21,23.10
2007,07,08,16,22,23.00
2007,07,08,16,23,22.90
2007,07,08,16,24,22.90
2007,07,08,16,25,22.90
2007,07,08,16,26,22.90
2007,07,08,16,27,22.90
2007,07,08,16,28,22.80
2007,07,08,16,29,22.80
2007,07,08,16,30,22.70
2007,07,08,16,31,22.60
2007,07,08,16,32,22.60
2007,07,08,16,33,22.60
2007,07,08,16,34,22.50
2007,07,08,16,35,22.50
2007,07,08,16,36,22.60
2007,07,08,16,37,22.60
2007,07,08,16,38,22.70
2007,07,08,16,39,22.80
2007,07,08,16,40,22.80
2007,07,08,16,41,22.80
2007,07,08,16,42,22.70
2007,07,08,16,43,22.80
2007,07,08,16,44,22.90
2007,07,08,16,45,22.90
2007,07,08,16,46,22.90
2007,07,08,16,47,22.90
2007,07,08,16,48,22.90
2007,07,08,16,49,22.90
2007,07,08,16,50,23.00
2007,07,08,16,51,23.20
2007,07,08,16,52,23.20
2007,07,08,16,53,23.20
2007,07,08,16,54,23.20
2007,07,08,16,55,23.20
2007,07,08,16,56,23.30
2007,07,08,16,57,23.30
2007,07,08,16,58,23.60
2007,07,08,16,59,23.70
2007,07,08,17,00,23.70
2007,07,08,17,01,23.60
2007,07,08,17,02,23.60
2007,07,08,17,03,23.60
2007,07,08,17,04,23.50
2007,07,08,17,05,23.50
2007,07,08,17,06,23.60
2007,07,08,17,07,23.70
2007,07,08,17,08,23.70
2007,07,08,17,09,23.70
2007,07,08,17,10,23.70
2007,07,08,17,11,23.60
2007,07,08,17,12,23.50
2007,07,08,17,13,23.40
2007,07,08,17,14,23.30
2007,07,08,17,15,23.20
2007,07,08,17,16,23.00
2007,07,08,17,17,22.80
2007,07,08,17,18,22.60
2007,07,08,17,19,22.50